Weather in Iskra

Ukraine / Donetsk Region     48°02′47″N   36°35′40″E
temp.,
°C
wind,
m/s
gust,
m/s
humid.,
%
clouds,
%
prec.,
mm/h
press.,
hPa
HPBL,
m
5 march, fri
fri523:00+3sw817826 0.0 1012575
02:00+2sw8169022 0.0 1012484
05:00+2sw7139397 0.0 1011436
08:00+3wsw699298 0.0 1012435
11:00+4w3494100 1.5 1013273
14:00+5wsw3589100 1.8 1012354
17:00+5nnw3488100 0.0 1012135
20:00+3nne2494100 0.3 1014171
6 march, sat
sat623:00+2nne4597100 2.5 1014243
02:00+2ne4597100 2.8 1014186
05:00+1n5797100 1.2 1013212
08:000nne71097100 3.5 1014550
11:000n71193100 1.8 1015825
14:00+1n71071100 2.3 10171246
17:00−1nnw61163100 0.0 1019892
20:00−3nw6126650 0.0 1022613
7 march, sun
sun723:00−4nw410730 0.0 1024637
02:00−4w47737 0.0 1025363
05:00−4w48800 0.0 1024361
08:00−2wsw69720 0.0 1024494
11:00+1wsw811530 0.0 10221374
14:00+2wsw8124931 0.0 10191441
17:00+1wsw8145937 0.0 1017717
20:000wsw7166620 0.0 1017581
8 march, mon
mon823:00−1wsw8166827 0.0 1016547
02:00−1wsw8157362 0.0 1015548
05:00−1wsw7147984 0.0 1013552
08:00+1w8146763 0.0 10131248
11:00+4w9145789 0.0 10121645
14:00+4w8126295 0.1 10121470
17:00+2w51075100 0.0 1012523
20:00−1nnw589098 0.1 1015519
9 march, tue
tue923:00−2nnw2576100 0.0 1016323
02:00−3nnw2278100 0.0 1017114
05:00−3nw248068 0.0 1018139
08:00−2nw355634 0.0 1019731
11:00+1nw564743 0.0 10191636
14:00+2wnw574972 0.1 10191675
17:00−1nw586799 0.2 1020798
20:00−3n497273 0.2 1023493